Voltar ao catálogo

OSCAR 24

AtivoRádio AmadorPO
NORAD 15936·PAYLOAD·🇺🇸 United States

Lançado Aug 3, 1985 de Vandenberg Space Force Base

Loading…

Próximas Passagens (próximas 24 horas)

TLE

AtualizadoSource: Space-Track

Época: Sep 14, 2026, 13:26 UTC

1 15936U 85066B   26257.56029914  .00000042  00000-0  59096-4 0  9996
2 15936  90.1623  96.9630 0169948  32.5783 343.2274 13.35978608  3272

Acompanhe OSCAR 24 em tempo real com AllMySat

Download on the App Store